Regional Weather Roundup
Issued by NWS Upton, NY

Current Version | Previous Version | Text Only | Print | Product List | Glossary On
Versions: 1 2 3 4 5 6 7 8 9 10 11 12 13 14 15 16 17 18 19 20 21 22 23 24 25 26 27 28 29 30 31 32 33 34 35 36 37 38 39 40 41 42 43 44 45 46 47 48 49 50
000
ASUS41 KOKX 180107
RWROKX

REGIONAL WEATHER ROUNDUP
NATIONAL WEATHER SERVICE NEW YORK NY
900 PM EDT FRI APR 17 2015

NOTE: "FAIR" INDICATES FEW OR NO CLOUDS BELOW 12,000 FEET WITH NO
SIGNIFICANT WEATHER AND/OR OBSTRUCTIONS TO VISIBILITY.

NYZ071-072-176-178-NJZ106-104-180200-
NEW YORK CITY METRO AREA


CITY           SKY/WX    TMP DP  RH WIND       PRES   REMARKS
CENTRAL PARK   PTCLDY    68  52  56 VRB3      29.96R
LAGUARDIA APRT MOCLDY    66  52  60 NW5       29.92R
KENNEDY INTL   MOCLDY    57  50  77 S6        29.94R
NEWARK/LIBERTY PTCLDY    68  54  60 W7        29.93R
BRNX BOT. GARD   N/A     66  52  59 N3        29.94F
TETERBORO      LGT RAIN  68  53  58 N5        29.92R
$$

NYZ177-179-078>081-180200-
LONG ISLAND NEW YORK

CITY           SKY/WX    TMP DP  RH WIND       PRES   REMARKS
FARMINGDALE    CLOUDY    59  53  80 S5        29.94R
ISLIP          MOCLDY    57  52  83 SW5       29.93R
SHIRLEY        PTCLDY    56  52  86 SW5       29.95R
WESTHAMPTON    PTCLDY    52  49  89 CALM      29.95R
MONTAUK POINT    N/A     52  48  86 CALM      29.94R
$$

NYZ052-065-067-180200-
HUDSON VALLEY

CITY           SKY/WX    TMP DP  RH WIND       PRES   REMARKS
WHITE PLAINS   PTCLDY    60  50  69 NW3       29.93R
NEWBURGH       PTCLDY    61  54  77 NW12      29.95R
MONTGOMERY     CLEAR     62  31  31 NW7       29.94R
POUGHKEEPSIE   CLEAR     61  50  67 W8        29.93R
ALBANY         CLEAR     56  45  66 NW8       29.95R
$$

NJZ001-105-106-008-010-013-015-019>022-104-180200-
NEW JERSEY

CITY           SKY/WX    TMP DP  RH WIND       PRES   REMARKS
NEWARK/LIBERTY PTCLDY    68  54  60 W7        29.93R
TETERBORO      LGT RAIN  68  53  58 N5        29.92R
CALDWELL       PTCLDY    64  51  62 CALM      29.94R
MORRISTOWN     CLOUDY    63  52  67 CALM      29.95R
SOMERVILLE     CLEAR     60  52  74 CALM      29.93R
SUSSEX         CLOUDY    66  51  58 N5        29.97R
ANDOVER          N/A     56  51  84 CALM      29.95R
TRENTON        MOCLDY    67  54  63 NW5       29.95R
MILLVILLE      MOCLDY    65  59  81 S3        29.96R
ATLANTIC CITY  CLOUDY    63  56  78 S3        29.96R
WRIGHTSTOWN    PTCLDY    62  58  87 CALM      29.92R
TOMS RIVER     MOCLDY    63  59  88 CALM      29.96R
BELMAR         MOCLDY    66  54  63 W3        29.96R
$$

PAZ047>061-062-071-180200-
EASTERN PENNSYLVANIA

CITY           SKY/WX    TMP DP  RH WIND       PRES   REMARKS
PHILADELPHIA   MOCLDY    69  58  67 SW7       29.97R
ALLENTOWN      PTCLDY    62  52  69 W5        29.96R
SCRANTON       CLEAR     62  51  67 NE5       29.97R
$$

CTZ002-004>006-009-010-012-RIZ004-006-007-MAZ004-011-015-180200-
SOUTHERN NEW ENGLAND
 IN CT

CITY           SKY/WX    TMP DP  RH WIND       PRES   REMARKS
BRADLEY INTL   CLEAR     61  50  67 W9        29.91R
HARTFORD       CLEAR     57  50  77 SW7       29.92R
DANBURY        CLEAR     55  49  80 CALM      29.95R
WTRBRY/OXFORD  CLEAR     55  48  76 CALM      29.96R
BRIDGEPORT     PTCLDY    57  52  83 SW5       29.93R
MERIDEN        CLEAR     56  51  84 CALM      29.92R
NEW HAVEN      PTCLDY    53  48  83 CALM      29.93R
CHESTER        FAIR      57  54  88 W6        29.93R
GROTON         PTCLDY    51  48  89 CALM      29.92R
WILLIMANTIC    CLEAR     56  51  84 CALM      29.92R

 IN RI

CITY           SKY/WX    TMP DP  RH WIND       PRES   REMARKS
PROVIDENCE     PTCLDY    53  50  89 S3        29.90R
BLOCK ISLAND   PTCLDY    48  45  87 SW10      29.93R
WESTERLY       CLOUDY    54  52  93 SW3       29.93R

 IN MA

CITY           SKY/WX    TMP DP  RH WIND       PRES   REMARKS
BOSTON         CLEAR     61  49  64 W9        29.89R
WORCESTER      CLEAR     55  48  77 W7        29.92R
WESTFIELD      CLEAR     58  49  72 W9        29.92R
PROVINCETOWN   CLEAR     48  46  93 SW8       29.90R
NANTUCKET      CLOUDY    48  46  93 W14       29.92R FOG
$$

ANZ330-335-338-340-345-350-353-355-180200-
COASTAL MARINE OBSERVATIONS


STATION/POSITION TIME  SKY/WX   TEMP    WIND        PRES    VSBY  WAVE
                                AIR SEA DIR/SP/G                  HT/PER
                 (UTC)          (F)     (DEG/KT/KT) (MB)    (MI)  (FT/S)
NY HARB ENTRANCE 0050            52 47  210/ 10/ 10 1013.4          3/ 9
4S FIRE IS       0003               44                N/A           4/10
20S FIRE ISLAND  2350               44              1013.9          3/ 6
23SW MTP         0050                                 N/A           4/10
HUDSON CANYON    NOT AVBL
EXECUTION ROCKS  NOT AVBL
WESTERN LI SOUND NOT AVBL
CENTRAL LI SOUND NOT AVBL
EASTERN LI SOUND 0000            48      CALM  /  2   N/A
ROBBINS REEF     0000            69     260/  9/ 11 1011.8
$$


>>>>>>>>>>>>>>>>>>>>>>>>>>>> KEY <<<<<<<<<<<<<<<<<<<<<<<<<<<
>                                                          <
>     SKY/WX - SKY CONDITION/PRESENT WEATHER               <
>     TMP    - TEMPERATURE IN FAHRENHEIT                   <
>     DP     - DEWPOINT IN FAHRENHEIT                      <
>     RH     - RELATIVE HUMIDITY IN PERCENT                <
>     WIND   - DIRECTION AND SPEED IN MPH                  <
>     PRES   - MEAN SEA LEVEL PRESSURE IN INCHES OF HG     <
>     WCI    - WIND CHILL INDEX                            <
>     VSB    - VISIBILITY IN MILES                         <
>     HX     - HEAT INDEX                                  <
>     TC     - TEMPERATURE IN CELSIUS                      <
>     VRB    - VARIABLE WIND DIRECTION                     <
>                                                          <
>>>>>>>>>>>>>>>>>>>>>>>>>>>> KEY <<<<<<<<<<<<<<<<<<<<<<<<<<<




USA.gov is the U.S. government's official web portal to all federal, state and local government web resources and services.